FALCON 9 DEB (54213 NORAD) Tracking and Keplerian Element Data

This shows tracking and keplerian element data for the satellite.

Feedback or suggestion? Click here.




ElementValue
Catalog54213
NameFALCON 9 DEB
Epoch Orbit108
Epoch Day307.70682564
Epoch Year2022
RAAN110.8473
Inclination53.2117
Eccentricity0.0055199
Argument of Perigee180.5954
Mean Anonmoly179.5025
Mean Motion16.07527291
Decay Rate0.01012063
L11 54213U 22141BJ 22307.70682564 .01012063 11437-4 98064-3 0 9990
L22 54213 53.2117 110.8473 0055199 180.5954 179.5025 16.07527291 1089



Live tracking and technical data element details for FALCON 9 DEB (NORAD 54213). FALCON 9 DEB can be tracked NOW for your location showing map with azimuth and elevation plus other details from your city location.







IsCatalogInMostPopularTable: catalog: 54213, numindb: 7
Update: records affected: 1



GetName: 54213 FALCON 9 DEB

Hit Count: updated at: Sun, 04 Dec 2022 21:57:21 GMT